Reflectivity
-20 -20 -20 -20 24 16 -3 -3 4 -20 -12 18 38 37 24 -8 -20 10 20 1 -20 -20 -20 -20 -20 -20 -9 -20 -20 -18 -19 -19 -13 21 -20 -20 7 -11 -20 -20 -20 -20 -8 3
-20 -20 -20 -20 11 9 31 18 15 -20 -20 9 32 37 34 22 12 -9 12 -20 4 12 -20 -20 -20 -20 -20 -20 -20 -20 -20 -20 -20 -20 26 -20 -15 26 -20 -20 -20 -20 -20 -9
-20 -20 -20 -20 -20 7 17 26 18 17 1 27 25 33 8 20 25 29 24 17 23 14 -3 1 -17 -20 -20 -20 -20 -20 -20 -20 -20 -20 -20 -20 -13 13 -17 -7 -17 -20 -20 27
-20 -20 -20 -20 -20 -19 -1 19 -2 5 33 33 23 28 34 -6 -6 20 18 9 17 13 -10 -13 -20 -2 -20 -20 -20 -20 -20 -20 -20 -20 -20 -20 -20 1 13 -8 -0 -0 -20 -20
-20 -20 -20 -20 16 -2 14 -14 -20 29 29 25 26 21 13 17 -8 -11 4 5 11 10 9 2 -20 -20 -20 -20 -20 -20 -20 -20 -20 -20 -20 -20 -20 -20 -20 -15 20 8 -20 20
-18 -20 -18 -20 0 9 -20 0 -15 3 16 -20 -20 -20 -20 -19 -8 5 1 8 -7 -20 -20 -20 -20 -20 -20 -20 -20 -20 -20 -20 -20 -20 -20 -20 -20 -20 -20 -20 -20 -17 12 -13
-20 -18 -20 -20 -20 4 2 29 16 -6 13 1 -20 -20 -20 -13 11 8 7 -4 -18 -20 -20 -20 -20 -20 -20 -20 -20 -20 -20 -20 -20 -20 -20 -20 -20 -20 -20 -20 -20 -20 -20 -20
-7 3 5 -20 -20 -10 27 21 29 17 4 15 -11 -20 -18 -9 -20 -20 -20 -20 -20 -20 -20 -20 -20 -20 -20 -20 -20 -20 -20 -20 -20 -20 -20 -20 -20 -20 -20 -20 -20 -20 -20 4
-20 -20 4 -20 -20 -20 5 28 16 34 24 20 14 1 -20 -20 -20 -20 -20 -20 -20 -20 -20 -20 -20 -20 -4 -9 -20 -20 -20 -20 -20 -20 -20 -20 -20 -20 -20 -1 11 8 13 10
15 -14 -17 -20 21 -20 -20 -3 -17 -2 -19 -20 -20 -20 -20 -20 -20 -20 -20 -20 -20 -20 -20 -20 -20 -20 -20 -18 -20 -20 -20 -20 -20 -20 -20 -20 -20 -20 -20 -20 1 4 11 4
31 4 -3 3 13 11 -6 4 -2 -20 -20 -20 -20 -20 -20 -20 -20 -20 -20 -20 -20 -20 -20 -20 -20 -20 -20 -19 -20 -20 -20 -20 -20 -20 -20 -20 -18 4 0 8 -3 1 8 12
19 28 36 27 6 16 35 19 -14 -20 -20 -20 -20 -18 -20 -20 -20 -20 -20 -20 -20 -20 -20 -20 -20 -20 -20 -20 -20 -20 -20 -20 -20 -20 -20 -20 -20 -20 -17 3 7 9 13 12
37 31 35 39 27 5 -10 19 19 9 -8 -20 -20 -20 -20 -20 -20 -20 -20 -20 -20 -20 -20 -20 -20 -20 -20 -20 -20 -20 -20 -20 -20 -20 -20 -20 -20 -20 -20 -9 -8 3 14 18
24 30 14 13 16 13 12 -12 -18 14 -17 -20 -20 -20 -20 -20 -20 -20 -20 -20 -20 -20 -20 -20 -20 -20 -20 -20 -20 -20 -20 -20 -20 -20 -20 -20 -20 -20 -19 -3 5 7 14 20
-20 -20 -20 -10 -12 1 -8 -20 -20 -20 -20 -20 -20 -20 -20 -20 -20 -20 -20 -20 -20 -20 -20 -20 -20 -20 -20 -20 -20 -20 -20 -20 -20 -20 -20 -20 -16 -2 3 5 9 6 8 12
-20 -20 -20 -20 -20 -20 -20 -20 -20 -20 -20 -20 -20 -20 -20 -20 -20 -20 -20 -20 -20 -20 -20 -20 -20 -19 -20 -20 -20 -20 -20 -20 -20 -20 -20 -20 -20 -15 1 6 6 7 7 9
-20 -20 -20 -20 -20 -20 -20 -20 -20 -20 -20 -20 -20 -20 -20 -20 -20 -20 -20 -20 -20 -20 -20 -20 -20 -20 -20 -20 -20 -20 -20 -20 -20 -20 -20 -20 -20 -20 -20 -20 -20 -20 -16 -6
-20 -20 -20 -20 -20 -20 -20 -20 -20 -20 -20 -20 -20 -20 -20 -20 -20 -20 -20 -20 -20 -20 -20 -20 -20 -20 -20 -20 -20 -20 -20 -20 -20 -20 -20 -20 -20 -20 -20 -20 -20 -20 -20 -20
-20 -20 -20 -20 -20 -20 -20 -20 -20 -20 -20 -20 -20 -20 -20 -20 -20 -20 -20 -20 -20 -20 -20 -20 -20 -20 -20 -20 -20 -20 -20 -20 -20 -20 -20 -20 -20 -20 -20 -20 -20 -20 -20 -20
-20 -20 -20 -20 -20 -20 -20 -20 -20 -20 -20 -20 -20 -20 -20 -20 -20 -20 -20 -20 -20 -20 -20 -20 -20 -20 -20 -20 -20 -20 -20 -20 -20 -20 -20 -20 -20 -20 -20 -20 -20 -20 -20 -20
-20 -20 -20 -20 -20 -20 -20 -20 -20 -20 -20 -20 -20 -20 -20 -20 -20 -20 -20 -20 -20 -20 -20 -20 -20 -20 -20 -20 -20 -20 -20 -20 -20 -20 -20 -20 -20 -20 -20 -20 -20 -20 -20 -20
-20 -20 -20 -20 -20 -20 -20 -20 -20 -20 -20 -20 -20 -20 -20 -20 -20 -20 -20 -20 -20 -20 -20 -20 -20 -20 -20 -20 -20 -20 -20 -20 -20 -20 -20 -20 -20 -20 -20 -20 -20 -20 -20 -20
-20 -20 -20 -20 -20 -20 -20 -20 -20 -20 -20 -20 -20 -20 -20 -20 -20 -20 -20 -20 -20 -20 -20 -20 -20 -20 -20 -20 -20 -20 -20 -20 -20 -20 -20 -20 -20 -20 -20 -20 -20 -20 -20 -20
-20 -20 -20 -20 -20 -20 -20 -20 -20 -20 -20 -20 -20 -20 -20 -20 -20 -20 -20 -20 -20 -20 -20 -20 -20 -20 -20 -20 -20 -20 -20 -20 -20 -20 -20 -20 -20 -20 -20 -20 -20 -20 -20 -20
-16 -16 -20 -20 -20 -20 -20 -20 -20 -20 -20 -20 -20 -20 -20 -20 -20 -20 -20 -20 -20 -20 -20 -20 -20 -20 -20 -20 -20 -20 -20 -20 -20 -20 -20 -20 -20 -20 -20 -20 -20 -20 -20 -20
-20 -20 -20 -20 -20 -20 -20 -20 -20 -20 -20 -20 -20 -20 -20 -20 -20 -20 -20 -20 -20 -20 -20 -20 -20 -20 -20 -20 -20 -20 -20 -20 -20 -20 -20 -20 -20 -20 -20 -20 -20 -20 -20 -20
-20 -20 -20 -20 -20 -20 -20 -20 -20 -20 -20 -20 -20 -20 -20 -20 -20 -20 -20 -20 -20 -20 -20 -20 -20 -20 -20 -20 -20 -20 -20 -20 -20 -20 -20 -20 -20 -20 -20 -20 -20 -20 -20 -20
Wind_Speed
7 12 12 13 8 12 17 13 7 4 11 5 6 5 10 11 10 14 13 19 17 15 13 13 13 12 11 11 11 13 2 11 13 12 12 12 13 15 15 17 17 17 17 18
4 5 8 7 13 12 13 16 14 13 10 3 9 2 5 8 12 13 14 19 17 15 15 12 13 11 11 11 12 11 13 12 7 11 13 14 14 14 15 17 18 18 19 19
4 7 9 6 3 10 8 7 10 5 3 9 5 6 5 2 11 15 15 14 14 14 14 13 13 11 10 11 11 13 13 13 13 12 11 9 13 15 17 19 16 19 20 19
4 5 3 5 13 11 13 9 8 7 6 12 10 11 2 7 14 13 14 15 15 12 12 14 12 11 8 10 11 12 12 14 14 14 11 11 11 9 14 17 18 19 20 21
3 3 7 10 4 6 4 3 7 8 11 21 11 21 15 13 15 14 15 13 13 11 12 12 13 13 12 12 11 11 14 14 15 14 15 15 13 12 11 11 14 19 20 21
2 2 4 3 6 14 6 2 10 7 19 21 17 9 7 11 13 16 15 13 11 12 11 10 12 12 12 14 14 15 16 15 14 14 13 13 14 15 14 13 14 15 17 17
4 3 7 6 2 6 2 2 5 14 12 8 8 9 13 11 13 14 13 14 11 10 10 11 11 10 12 13 15 14 14 13 13 14 14 13 13 11 12 12 9 10 6 9
4 3 8 11 7 6 4 3 9 12 15 17 17 15 13 12 14 14 13 11 10 9 10 10 11 11 12 12 11 12 12 12 13 14 12 10 12 11 10 9 7 8 10 10
6 5 6 13 11 12 10 12 8 9 12 13 14 13 12 12 12 11 10 9 9 9 10 10 11 12 12 12 11 10 10 11 11 12 14 13 13 14 10 9 7 7 8 9
3 7 9 12 15 18 14 15 14 13 12 12 14 12 12 12 10 9 10 10 9 10 11 12 12 12 11 11 9 10 11 12 10 11 14 16 11 11 10 9 8 8 8 9
3 11 11 12 12 14 13 14 16 18 16 12 14 14 13 12 12 11 11 11 11 11 12 13 12 13 13 11 9 9 11 10 10 9 10 11 15 16 13 16 13 9 9 8
2 5 9 8 9 9 12 14 14 14 14 14 15 14 13 13 12 11 11 11 11 13 12 12 12 13 14 13 11 10 11 8 8 8 8 8 8 11 30 32 31 31 28 18
4 10 12 9 11 12 14 12 12 17 13 13 13 11 13 12 12 13 10 11 11 10 10 10 11 13 13 12 11 13 11 9 7 8 8 8 8 9 10 15 29 34 33 31
9 5 8 7 7 13 13 12 15 15 13 11 11 10 11 12 12 11 11 9 9 9 11 10 11 13 12 11 10 8 8 12 8 7 7 7 7 8 9 10 10 11 21 23
11 13 12 11 13 11 10 10 12 11 10 11 10 10 10 11 11 10 9 8 9 11 12 11 11 12 10 9 9 10 8 7 6 7 7 8 7 9 9 9 9 8 8 12
9 9 11 13 10 9 9 8 10 10 11 11 10 10 10 11 11 10 9 10 11 10 10 10 11 10 10 8 7 7 8 10 7 5 6 7 7 7 8 8 9 8 8 8
5 7 7 8 8 8 9 9 10 10 9 10 9 9 10 10 10 9 9 8 9 9 8 9 9 9 9 9 8 6 5 7 8 6 6 6 6 7 8 7 8 8 9 9
9 9 8 8 8 8 9 9 9 10 9 9 8 8 7 8 7 6 6 6 8 10 11 10 7 9 8 9 7 5 5 5 6 6 6 7 7 7 7 7 7 7 7 9
10 11 10 11 10 10 9 9 9 9 8 7 8 8 7 7 7 6 5 8 8 9 9 10 12 8 9 10 8 6 6 5 6 6 6 7 7 7 7 7 7 7 7 7
10 11 12 12 11 9 10 7 8 8 6 7 6 6 7 4 3 5 5 7 3 2 5 8 8 7 8 9 9 6 7 7 7 6 6 7 7 6 7 8 7 6 6 5
9 9 10 10 9 9 7 5 6 7 4 5 7 6 6 4 4 3 5 5 5 6 7 8 7 6 6 6 7 5 5 5 6 5 6 4 5 6 6 5 5 5 5 4
6 8 7 7 8 8 6 5 5 5 5 5 5 5 6 6 5 7 3 4 3 7 5 5 5 7 6 8 5 5 6 6 5 4 4 4 4 4 4 4 4 3 3 3
6 7 7 6 7 6 5 5 5 5 5 5 5 4 5 4 3 3 3 4 3 4 4 3 5 7 7 5 4 5 5 6 4 4 3 3 3 3 3 3 2 3 3 3
6 6 6 6 6 6 7 5 6 6 5 6 5 3 5 3 3 2 3 3 3 4 3 3 5 6 6 3 3 4 3 4 3 3 3 3 3 3 3 2 3 2 2 3
5 6 5 4 4 2 4 5 4 4 5 6 5 5 5 2 4 2 2 1 3 3 2 4 5 5 3 3 3 3 2 2 1 3 3 2 2 2 2 2 2 2 1 0
6 5 4 5 3 2 2 3 3 4 4 3 1 1 2 2 2 2 1 2 3 3 2 1 1 1 1 2 2 2 2 1 2 1 2 1 1 2 2 1 0 0 1 2
4 5 4 4 4 4 4 4 4 2 2 3 2 1 2 2 3 3 3 1 1 0 2 3 2 1 0 1 1 1 2 2 2 1 1 2 2 3 3 3 3 3 3 3
Wind_Direction
291 280 279 292 222 259 232 223 208 238 231 161 134 118 302 318 91 84 80 82 68 63 59 54 48 35 24 20 0 356 205 210 219 223 227 227 225 226 224 217 216 219 222 224
284 351 326 286 238 217 246 237 229 244 247 71 99 195 266 317 97 79 60 68 69 56 54 48 42 30 22 15 7 6 20 17 340 237 224 225 228 228 228 228 226 222 224 224
278 330 302 285 207 244 197 230 229 254 223 120 119 166 282 75 90 89 77 70 66 52 42 41 44 26 22 18 8 13 12 4 2 356 359 276 239 226 228 231 230 229 231 226
267 320 274 278 318 259 189 178 204 194 232 184 173 155 205 107 87 71 66 58 59 54 40 24 21 23 32 30 24 16 14 2 354 345 349 344 335 324 255 235 227 228 230 229
210 212 294 299 357 343 179 37 294 220 194 147 147 93 63 60 67 72 68 65 68 53 38 29 18 7 15 24 25 21 13 3 354 351 340 336 329 325 311 306 272 233 230 230
169 230 255 269 325 4 360 91 326 144 173 163 145 105 101 81 74 69 64 60 66 52 39 26 16 10 21 19 11 7 1 357 357 351 341 329 328 318 311 301 289 276 241 237
211 250 286 276 299 33 28 128 353 86 98 99 89 96 114 94 74 69 66 53 56 55 45 29 15 15 28 18 12 357 354 357 3 358 344 339 327 319 313 315 323 345 30 37
173 220 266 334 310 139 138 39 94 81 97 99 96 97 95 84 70 63 61 60 57 56 50 34 29 31 32 25 5 8 9 8 7 5 359 352 344 338 337 342 12 36 53 40
171 206 76 34 50 39 91 113 79 93 96 108 104 98 89 81 75 65 61 54 56 54 52 39 35 32 34 18 16 21 27 25 23 20 15 9 8 0 355 12 27 39 53 58
331 67 78 70 57 54 56 71 62 63 85 100 101 94 90 83 64 61 53 46 47 50 47 42 34 33 31 26 30 37 40 35 31 31 31 29 29 25 18 14 29 44 51 61
137 110 89 69 65 58 52 66 66 59 55 74 92 81 80 70 57 47 45 36 36 38 41 37 33 37 35 29 34 50 47 42 37 35 35 38 41 36 37 36 38 47 52 54
26 42 97 67 70 80 72 58 63 65 54 50 63 71 71 64 57 50 45 38 40 38 41 30 29 33 32 32 39 48 53 41 36 38 35 40 40 47 41 40 43 48 51 61
56 60 80 76 60 80 78 68 60 73 59 67 64 75 79 81 70 60 48 41 38 32 28 25 29 33 24 19 31 51 58 47 44 46 43 40 43 53 52 31 42 44 47 52
118 97 83 52 81 83 86 84 75 68 66 69 75 70 77 80 77 65 55 48 46 40 34 27 31 30 21 18 27 35 45 48 49 41 40 42 38 47 63 58 35 29 32 45
53 68 84 85 64 88 88 87 80 75 77 70 66 74 79 83 78 65 53 50 49 47 34 27 29 23 12 18 29 38 48 42 40 44 42 42 45 53 53 59 63 49 29 28
52 74 77 81 78 74 81 88 96 94 86 89 87 89 88 85 78 64 50 41 48 38 28 23 25 8 15 16 19 28 36 36 46 44 49 47 43 53 57 59 60 59 54 38
102 89 94 83 88 84 81 76 84 83 91 99 107 104 101 93 78 64 47 37 42 35 15 18 14 4 13 24 25 29 34 40 28 40 51 57 57 58 61 60 61 59 56 49
67 64 69 101 108 104 89 85 85 89 93 98 92 82 70 71 74 60 43 28 33 34 20 0 16 12 17 25 25 27 30 44 46 52 49 54 58 58 57 62 61 63 61 55
77 90 94 96 96 100 102 94 82 83 85 90 89 82 81 72 67 58 42 48 40 33 0 357 11 21 27 34 36 31 37 42 46 46 53 55 56 55 58 58 58 57 61 60
83 82 86 85 79 92 94 78 88 85 77 91 89 83 87 60 67 68 55 60 25 326 344 5 4 26 35 33 35 40 43 41 51 53 46 52 53 52 56 54 53 51 58 58
75 77 78 79 80 77 76 73 81 82 71 81 101 98 98 68 59 80 61 60 358 16 15 14 22 29 34 35 39 32 40 47 52 52 54 46 48 53 48 40 43 46 55 46
85 90 85 84 93 87 74 75 81 85 93 98 89 98 97 88 80 75 61 69 24 26 20 18 27 33 36 38 40 39 46 41 42 47 50 56 61 67 63 60 52 27 51 51
104 106 108 105 106 104 94 90 89 97 89 88 95 88 85 85 81 92 76 28 42 38 41 25 20 41 50 47 41 48 47 44 43 46 55 83 94 93 84 66 57 60 58 75
116 122 125 127 125 124 118 131 118 107 106 92 91 120 121 107 8 57 95 109 72 60 35 53 50 47 45 28 59 55 51 54 41 47 50 55 72 78 58 51 54 57 80 87
141 152 164 185 154 138 146 154 144 137 119 106 107 107 119 150 144 226 128 175 201 73 54 6 61 54 56 67 56 75 66 63 57 57 68 91 105 96 83 85 105 124 117 135
105 93 87 83 83 54 113 125 119 126 129 115 49 51 49 36 69 82 73 99 146 184 171 260 345 85 50 69 111 174 173 170 104 107 117 122 172 142 151 167 156 297 229 232
78 95 93 79 55 60 72 93 97 95 129 129 131 273 132 100 115 116 109 114 91 129 200 244 247 284 228 265 277 242 227 227 218 215 234 194 187 192 195 205 224 237 231 232